Weather History for KMVY - February, 2014

Change the Weather History Date:

Friday, February 7, 2014

  Actual Average Record
Temperature  
Mean Temperature 24 °F -  
Max Temperature 30 °F 35 °F 51 °F (2012)
Min Temperature 17 °F 20 °F 6 °F (1981)
Degree Days  
Heating Degree Days 42    
Moisture  
Dew Point 13 °F    
Average Humidity 55    
Maximum Humidity 68    
Minimum Humidity 46    
Precipitation  
Precipitation 0.00 in - - ()
Sea Level Pressure  
Sea Level Pressure 30.23 in    
Wind  
Wind Speed 7 mph (West)    
Max Wind Speed 14 mph    
Max Gust Speed 20 mph    
Visibility 10 miles    
Events      
Averages and records for this station are not official NWS values.
T = Trace of Precipitation, MM = Missing Value Source: NWS Daily Summary

Daily Weather History Graph

Daily Weather History Graph

Search for Another Location

Airport or City:

Trip Planner

Search our weather history database for the weather conditions in past years. The results will help you decide how hot, cold, wet, or windy it might be!

Date:

Astronomy

Feb. 07, 2014 Rise Set
Actual Time 6:47 AM EST 5:06 PM EST
Civil Twilight 6:18 AM EST 5:35 PM EST
Nautical Twilight 5:45 AM EST 6:07 PM EST
Astronomical Twilight 5:13 AM EST 6:40 PM EST
Moon 11:14 AM EST (2/7) 1:00 AM EST (2/7)
Length of Visible Light 11h 16m
Length of Day
10h 18m
First Quarter, 59% of the Moon is Illuminated
Feb 7
First Quarter
Feb 14
Full
Feb 22
Last Quarter
Mar 1
New
Mar 8
First Quarter

Hourly Weather History & Observations

Time (EST) Temp. Windchill Dew Point Humidity Pressure Visibility Wind Dir Wind Speed Gust Speed Precip Events Conditions
12:53 AM 27.0 °F 18.7 °F 15.1 °F 61% 30.22 in 10.0 mi WNW 8.1 mph - N/A   Clear
1:53 AM 27.0 °F 19.5 °F 14.0 °F 58% 30.21 in 10.0 mi WNW 6.9 mph - N/A   Clear
2:53 AM 26.1 °F 16.8 °F 10.0 °F 51% 30.21 in 10.0 mi NW 9.2 mph - N/A   Clear
3:53 AM 24.1 °F 17.0 °F 10.9 °F 57% 30.22 in 10.0 mi NW 5.8 mph - N/A   Clear
4:53 AM 23.0 °F 15.8 °F 9.0 °F 55% 30.23 in 10.0 mi NW 5.8 mph - N/A   Clear
5:53 AM 19.0 °F 12.3 °F 8.1 °F 62% 30.24 in 10.0 mi WNW 4.6 mph - N/A   Clear
6:53 AM 17.1 °F 10.0 °F 8.1 °F 68% 30.25 in 10.0 mi NW 4.6 mph - N/A   Clear
7:53 AM 24.1 °F 18.2 °F 9.0 °F 53% 30.26 in 10.0 mi NW 4.6 mph - N/A   Clear
8:53 AM 27.0 °F 18.0 °F 9.0 °F 47% 30.28 in 10.0 mi NW 9.2 mph - N/A   Clear
9:53 AM 28.0 °F 20.0 °F 10.0 °F 47% 30.28 in 10.0 mi West 8.1 mph - N/A   Clear
10:53 AM 30.0 °F 22.4 °F 12.9 °F 49% 30.27 in 10.0 mi West 8.1 mph - N/A   Clear
11:53 AM 30.0 °F 23.2 °F 15.1 °F 54% 30.23 in 10.0 mi West 6.9 mph - N/A   Clear
12:53 PM 30.0 °F 19.5 °F 14.0 °F 51% 30.20 in 10.0 mi West 13.8 mph 19.6 mph N/A   Clear
1:53 PM 30.0 °F 20.5 °F 12.0 °F 47% 30.19 in 10.0 mi West 11.5 mph - N/A   Clear
2:53 PM 30.9 °F 22.2 °F 12.0 °F 46% 30.19 in 10.0 mi West 10.4 mph - N/A   Clear
3:53 PM 30.0 °F 21.1 °F 15.1 °F 54% 30.18 in 10.0 mi WNW 10.4 mph - N/A   Clear
4:53 PM 30.0 °F 23.2 °F 15.1 °F 54% 30.20 in 10.0 mi WSW 6.9 mph - N/A   Clear
5:53 PM 28.9 °F 22.8 °F 16.0 °F 58% 30.20 in 10.0 mi WSW 5.8 mph - N/A   Clear
6:53 PM 27.0 °F 19.5 °F 16.0 °F 63% 30.22 in 10.0 mi SSW 6.9 mph - N/A   Clear
7:53 PM 28.9 °F 21.1 °F 17.1 °F 61% 30.23 in 10.0 mi WSW 8.1 mph - N/A   Clear
8:53 PM 28.9 °F 22.8 °F 17.1 °F 61% 30.25 in 10.0 mi WSW 5.8 mph - N/A   Clear
9:53 PM 30.9 °F 22.8 °F 14.0 °F 50% 30.24 in 10.0 mi West 9.2 mph - N/A   Clear
10:53 PM 30.9 °F 25.2 °F 19.0 °F 61% 30.23 in 10.0 mi WSW 5.8 mph - N/A   Clear
11:53 PM 30.0 °F 26.5 °F 18.0 °F 61% 30.23 in 10.0 mi West 3.5 mph - N/A   Scattered Clouds